Flag for Poland Weather past 2 weeks in Legnica, Poland

Now
45 °F

Light rain. Low clouds.


Feels Like: 41 °F
Forecast: 38 / 58 °F
Wind: 7 mph from Northwest

Location: Wroclaw Ii

Current Time: Apr 28, 2015 at 6:02:43 PM

Latest Report: Apr 28, 2015 at 5:00 PM


Visibility: 7 mi

Pressure: 29.86 "Hg

Humidity: 92%

Dew point: 43 °F

Location of LegnicaLocation

Historic Weather in Legnica — Graph

°F

Legnica temperature yesterday

Maximum temperature yesterday: 76 °F (at 3:00 PM)
Minimum temperature yesterday: 45 °F (at 4:00 AM)
Average temperature yesterday: 60 °F

Past Weeks' High & Low Weather Summary

 TemperatureHumidityPressure
High76 °F (Apr 27, 3:00 PM)98% (Apr 27, 1:00 AM)30.37 "Hg (Apr 27, 1:00 AM)
Low31 °F (Apr 19, 6:00 AM)21% (Apr 21, 3:00 PM)29.53 "Hg (Apr 27, 7:00 PM)
Average53 °F61%30.01 "Hg
* Reported Apr 13 4:00 PM — Apr 28 4:00 PM, Legnica, Weather by CustomWeather, © 2015

Note: Actual official high and low records may vary slightly from our data, if they occured in-between our weather recording intervals... More about our weather records

Advertising

Legnica weather history for previous 24 hours

 ConditionsComfort  
Time TempWeatherWind HumidityBarometerVisibility
4:00 PM
Tue, Apr 28
46 °FLight rain. Low clouds.7 mph90%29.83 "Hg9 mi
3:00 PMN/APassing clouds.30 mphN/AN/A2 mi
2:00 PM47 °FLight rain. Low clouds.6 mph92%29.79 "Hg5 mi
1:00 PM49 °FDrizzle. Low clouds.6 mph93%29.76 "Hg5 mi
12:00 PM49 °FDrizzle. Low clouds.5 mph96%29.75 "Hg2 mi
11:00 AM49 °FDrizzle. Low clouds.5 mph95%29.73 "Hg2 mi
10:00 AM50 °FDrizzle. Low clouds.5 mph96%29.71 "Hg2 mi
9:00 AMN/APassing clouds.26 mphN/AN/A3 mi
8:00 AM50 °FLow clouds.5 mph97%29.68 "Hg2 mi
7:00 AM51 °FDrizzle. Low clouds.5 mph97%29.65 "Hg1 mi
6:00 AM52 °FLow clouds.5 mph97%29.63 "Hg1 mi
5:00 AMN/APassing clouds.26 mphN/AN/A13 mi
4:00 AM54 °FLight rain. Low clouds.3 mph95%29.62 "Hg7 mi
3:00 AM56 °FFog.3 mph94%29.61 "Hg5 mi
2:00 AM56 °FFog.3 mph93%29.59 "Hg5 mi
1:00 AM57 °FThunderstorms. Low clouds.3 mph94%29.60 "Hg9 mi
12:00 AM59 °FThundershowers. Overcast.3 mph86%29.57 "Hg19 mi
11:00 PM
Mon, Apr 27
N/APassing clouds.43 mphN/AN/A1 mi
10:00 PM62 °FOvercast.2 mph67%29.55 "Hg25 mi
9:00 PM62 °FOvercast.2 mph65%29.56 "Hg25 mi
8:00 PMN/APassing clouds.28 mphN/AN/A4 mi
7:00 PM71 °FThunderstorms. Partly sunny.6 mph47%29.53 "Hg19 mi
6:00 PM73 °FPartly sunny.8 mph44%29.54 "Hg19 mi
Weather by CustomWeather, © 2015

See weather overviewHow to use our weather pages